Weather in Chistoozerka

Russia / Altai Krai     52°46′01″N   80°46′27″E
temp.,
°C
wind,
m/s
gust,
m/s
humid.,
%
clouds,
%
prec.,
mm/h
press.,
hPa
HPBL,
m
9 march, tue
tue901:00−12w61294100 2.0 1023315
04:00−15sw599598 0.0 1027189
07:00−16ssw479489 0.0 1029125
10:00−14ssw6129133 0.0 1030294
13:00−10sw6108642 0.0 1028423
16:00−7sw598520 0.0 1027452
19:00−10ssw338838 0.0 102522
22:00−12s339053 0.0 102521
10 march, wed
wed1001:00−13s349257 0.0 102246
04:00−13ssw349656 0.0 102150
07:00−12ssw239376 0.0 102024
10:00−10s239596 0.0 101892
13:00−5sse478997 0.0 1015286
16:00+1sse41197100 0.0 1011643
19:00+2s81785100 0.0 1008634
22:00+2ssw81783100 0.0 1005602
11 march, thu
thu1101:00+2ssw91799100 0.8 1005603
04:00−5wsw111883100 0.1 1008572
07:00−8wsw6159175 0.2 1013457
10:00−9sw61391100 0.0 1016376
13:00−7sw71289100 0.0 1017559
16:00−5sw6108457 0.0 1018532
19:00−6s5138328 0.0 1016351
22:00−3s10217989 0.0 1015694
12 march, fri
fri1201:00−4wsw8148994 0.6 1015879
04:00−8wsw61384100 0.7 1016735
07:00−13sw5138674 0.7 1018344
10:00−14wsw714870 0.0 1020579
13:00−13wsw711840 0.0 1022725
16:00−12wsw61085100 0.0 1021799
19:00−15wsw3393100 0.0 102163
22:00−19wsw339685 0.0 102126
13 march, sat
sat1301:00−20wsw349842 0.0 102140
04:00−19wsw479786 0.1 1022198
07:00−19w499792 0.1 1026244
10:00−19w599691 0.1 1029465
13:00−20wsw589394 0.1 1031357
16:00−18wsw579173 0.0 1033414
19:00−21sw349359 0.0 103456
22:00−22ssw44930 0.0 103562